timestamp,surface_pressure_avg,surface_temp_avg,battery_voltage,lat,long
2019-06-25 00:00:00+00:00,244.438,10.79,13.13,47.84626,-54.09684
2019-06-25 00:10:00+00:00,246.0814,10.78,12.97,47.84626,-54.09684
2019-06-25 00:20:00+00:00,247.0064,10.8,13.05,47.84626,-54.09684
2019-06-25 00:30:00+00:00,246.4598,10.8,13.05,47.84626,-54.09684
2019-06-25 00:40:00+00:00,249.4981,10.8,13.05,47.84626,-54.09684
2019-06-25 00:50:00+00:00,250.2281,10.79,13.05,47.84626,-54.09684
2019-06-25 01:00:00+00:00,251.7014,10.7,12.97,47.84626,-54.09684
2019-06-25 01:10:00+00:00,253.4564,10.7,12.89,47.84626,-54.09684
2019-06-25 01:20:00+00:00,257.8564,10.69,12.97,47.84626,-54.09684
2019-06-25 01:30:00+00:00,260.4464,10.7,12.97,47.84626,-54.09684
2019-06-25 01:40:00+00:00,265.8881,10.7,12.97,47.84626,-54.09684
2019-06-25 01:50:00+00:00,271.5564,10.66,12.97,47.84626,-54.09684
2019-06-25 02:00:00+00:00,278.1797,10.6,12.89,47.84626,-54.09684
2019-06-25 02:10:00+00:00,281.3047,10.59,12.81,47.84626,-54.09684
2019-06-25 02:20:00+00:00,285.3514,10.5,12.97,47.84626,-54.09684
2019-06-25 02:30:00+00:00,290.9114,10.5,12.97,47.84626,-54.09684
2019-06-25 02:40:00+00:00,299.733,10.3,12.97,47.84626,-54.09684
2019-06-25 02:50:00+00:00,301.9297,10.2,12.97,47.84626,-54.09684
2019-06-25 03:00:00+00:00,303.8347,10.08,12.89,47.84626,-54.09684
2019-06-25 03:10:00+00:00,307.908,10.0,12.81,47.84626,-54.09684
2019-06-25 03:20:00+00:00,313.1746,10.0,12.89,47.84626,-54.09684
2019-06-25 03:30:00+00:00,314.178,10.0,12.89,47.84626,-54.09684
2019-06-25 03:40:00+00:00,317.4197,10.0,12.97,47.84626,-54.09684
2019-06-25 03:50:00+00:00,321.1997,10.0,12.97,47.84626,-54.09684
2019-06-25 04:00:00+00:00,322.2913,10.0,12.89,47.84626,-54.09684
2019-06-25 04:10:00+00:00,321.903,9.99,12.81,47.84626,-54.09684
2019-06-25 04:20:00+00:00,324.168,9.99,12.89,47.84626,-54.09684
2019-06-25 04:30:00+00:00,327.9563,9.98,12.89,47.84626,-54.09684
2019-06-25 04:40:00+00:00,327.283,9.98,12.89,47.84626,-54.09684
2019-06-25 04:50:00+00:00,323.8763,9.98,12.97,47.84626,-54.09684
2019-06-25 05:00:00+00:00,325.9763,9.99,12.81,47.84626,-54.09684
2019-06-25 05:10:00+00:00,329.738,9.95,12.81,47.84626,-54.09684
2019-06-25 05:20:00+00:00,329.8146,9.98,12.89,47.84626,-54.09684
2019-06-25 05:30:00+00:00,326.9897,9.95,12.89,47.84626,-54.09684
2019-06-25 05:40:00+00:00,327.8981,9.9,12.89,47.84626,-54.09684
2019-06-25 05:50:00+00:00,328.4196,9.99,12.89,47.84626,-54.09684
2019-06-25 06:00:00+00:00,325.8213,10.0,12.81,47.84626,-54.09684
2019-06-25 06:10:00+00:00,321.308,10.0,12.81,47.84626,-54.09684
2019-06-25 06:20:00+00:00,321.6413,10.0,12.89,47.84626,-54.09684
2019-06-25 06:30:00+00:00,318.2813,10.03,12.89,47.84626,-54.09684
2019-06-25 06:40:00+00:00,312.5697,10.0,12.89,47.84626,-54.09684
2019-06-25 06:50:00+00:00,309.6631,10.0,12.89,47.84626,-54.09684
2019-06-25 07:00:00+00:00,308.0613,10.08,12.81,47.84626,-54.09684
2019-06-25 07:10:00+00:00,305.1481,10.1,12.73,47.84626,-54.09684
2019-06-25 07:20:00+00:00,298.5013,10.1,12.81,47.84626,-54.09684
2019-06-25 07:30:00+00:00,294.238,10.07,12.89,47.84626,-54.09684
2019-06-25 07:40:00+00:00,290.3164,10.1,12.89,47.84626,-54.09684
2019-06-25 07:50:00+00:00,283.9131,10.1,12.89,47.84626,-54.09684
2019-06-25 08:00:00+00:00,275.3347,10.1,12.81,47.84626,-54.09684
2019-06-25 08:10:00+00:00,269.7364,10.09,12.73,47.84626,-54.09684
2019-06-25 08:20:00+00:00,264.6448,10.13,12.89,47.84626,-54.09684
2019-06-25 08:30:00+00:00,257.8381,10.3,12.89,47.84626,-54.09684
2019-06-25 08:40:00+00:00,252.9898,10.5,12.97,47.84626,-54.09684
2019-06-25 08:50:00+00:00,246.2064,10.59,13.05,47.84626,-54.09684
2019-06-25 09:00:00+00:00,240.0931,10.6,12.97,47.84626,-54.09684
2019-06-25 09:10:00+00:00,236.3498,10.6,12.97,47.84626,-54.09684
2019-06-25 09:20:00+00:00,234.7715,10.6,13.13,47.84626,-54.09684
2019-06-25 09:30:00+00:00,228.6615,10.6,13.29,47.84626,-54.09684
2019-06-25 09:40:00+00:00,222.2498,10.6,13.44,47.84626,-54.09684
2019-06-25 09:50:00+00:00,222.1214,10.6,13.68,47.84626,-54.09684
2019-06-25 10:00:00+00:00,221.7598,10.58,13.76,47.84626,-54.09684
2019-06-25 10:10:00+00:00,216.8748,10.56,13.84,47.84626,-54.09684
2019-06-25 10:20:00+00:00,215.6014,10.54,14.16,47.84626,-54.09684
2019-06-25 10:30:00+00:00,220.1131,10.5,14.32,47.84626,-54.09684
2019-06-25 10:40:00+00:00,222.2548,10.5,14.4,47.84626,-54.09684
2019-06-25 10:50:00+00:00,219.2031,10.5,14.32,47.84626,-54.09684
2019-06-25 11:00:00+00:00,220.4398,10.5,14.24,47.84626,-54.09684
2019-06-25 11:10:00+00:00,226.5531,10.5,14.16,47.84626,-54.09684
2019-06-25 11:20:00+00:00,227.6581,10.5,14.32,47.84626,-54.09684
2019-06-25 11:30:00+00:00,226.3915,10.4,14.4,47.84626,-54.09684
2019-06-25 11:40:00+00:00,228.0197,10.3,14.48,47.84626,-54.09684
2019-06-25 11:50:00+00:00,229.6381,10.26,14.64,47.84626,-54.09684
2019-06-25 12:00:00+00:00,231.7147,10.18,14.64,47.84626,-54.09684
2019-06-25 12:10:00+00:00,234.1631,10.09,14.56,47.84626,-54.09684
2019-06-25 12:20:00+00:00,233.0798,10.0,14.72,47.84626,-54.09684
2019-06-25 12:30:00+00:00,234.1031,9.9,14.64,47.84626,-54.09684
2019-06-25 12:40:00+00:00,240.2997,9.9,14.64,47.84626,-54.09684
2019-06-25 12:50:00+00:00,240.0481,9.9,14.64,47.84626,-54.09684
2019-06-25 13:00:00+00:00,236.4448,9.98,14.56,47.84626,-54.09684
2019-06-25 13:10:00+00:00,240.0114,9.9,14.56,47.84626,-54.09684
2019-06-25 13:20:00+00:00,246.6647,9.9,14.64,47.84626,-54.09684
2019-06-25 13:30:00+00:00,246.9814,9.9,14.64,47.84626,-54.09684
2019-06-25 13:40:00+00:00,247.6781,10.0,14.64,47.84626,-54.09684
2019-06-25 13:50:00+00:00,254.7164,10.0,14.64,47.84626,-54.09684
2019-06-25 14:00:00+00:00,257.0098,9.9,14.56,47.84626,-54.09684
2019-06-25 14:10:00+00:00,255.0631,9.9,14.48,47.84626,-54.09684
2019-06-25 14:20:00+00:00,258.5547,9.89,14.56,47.84626,-54.09684
2019-06-25 14:30:00+00:00,266.3047,9.9,14.48,47.84626,-54.09684
2019-06-25 14:40:00+00:00,265.6731,9.9,14.56,47.84626,-54.09684
2019-06-25 14:50:00+00:00,266.2947,9.63,14.56,47.84626,-54.09684
2019-06-25 15:00:00+00:00,273.7981,9.9,14.48,47.84626,-54.09684
2019-06-25 15:10:00+00:00,282.9747,9.4,14.4,47.84626,-54.09684
2019-06-25 15:20:00+00:00,284.6297,9.72,14.56,47.84626,-54.09684
2019-06-25 15:30:00+00:00,291.153,9.78,14.48,47.84626,-54.09684
2019-06-25 15:40:00+00:00,298.6763,9.4,14.48,47.84626,-54.09684
2019-06-25 15:50:00+00:00,301.8464,9.4,14.48,47.84626,-54.09684
2019-06-25 16:00:00+00:00,299.4315,9.49,14.4,47.84626,-54.09684
2019-06-25 16:10:00+00:00,303.4497,9.5,14.32,47.84626,-54.09684
2019-06-25 16:20:00+00:00,306.053,9.6,14.48,47.84626,-54.09684
2019-06-25 16:30:00+00:00,304.9246,9.7,14.4,47.84626,-54.09684
2019-06-25 16:40:00+00:00,304.6164,9.77,14.4,47.84626,-54.09684
2019-06-25 16:50:00+00:00,310.2347,9.8,14.4,47.84626,-54.09684
2019-06-25 17:00:00+00:00,314.9247,9.8,14.24,47.84626,-54.09684
2019-06-25 17:10:00+00:00,313.8779,9.81,14.16,47.84626,-54.09684
2019-06-25 17:20:00+00:00,312.3297,9.98,14.32,47.84626,-54.09684
2019-06-25 17:30:00+00:00,315.3164,10.1,14.32,47.84626,-54.09684
2019-06-25 17:40:00+00:00,318.1346,10.0,14.32,47.84626,-54.09684
2019-06-25 17:50:00+00:00,314.5963,10.14,14.24,47.84626,-54.09684
2019-06-25 18:00:00+00:00,309.6547,10.18,14.16,47.84626,-54.09684
2019-06-25 18:10:00+00:00,309.298,10.04,14.08,47.84626,-54.09684
2019-06-25 18:20:00+00:00,311.303,10.6,14.16,47.84626,-54.09684
2019-06-25 18:30:00+00:00,308.8431,11.09,14.24,47.84626,-54.09684
2019-06-25 18:40:00+00:00,306.7947,10.64,14.16,47.84626,-54.09684
2019-06-25 18:50:00+00:00,308.728,10.55,14.16,47.84626,-54.09684
2019-06-25 19:00:00+00:00,310.9713,11.05,14.08,47.84626,-54.09684
2019-06-25 19:10:00+00:00,304.3929,11.5,14.0,47.84626,-54.09684
2019-06-25 19:20:00+00:00,298.498,11.7,14.0,47.84626,-54.09684
2019-06-25 19:30:00+00:00,296.853,11.8,14.0,47.84626,-54.09684
2019-06-25 19:40:00+00:00,293.1014,11.9,14.08,47.84626,-54.09684
2019-06-25 19:50:00+00:00,285.7047,12.0,14.0,47.84626,-54.09684
2019-06-25 20:00:00+00:00,280.918,12.0,14.0,47.84626,-54.09684
2019-06-25 20:10:00+00:00,277.6614,11.98,13.84,47.84626,-54.09684
2019-06-25 20:20:00+00:00,271.8714,12.07,13.92,47.84626,-54.09684
2019-06-25 20:30:00+00:00,266.2514,12.1,13.92,47.84626,-54.09684
2019-06-25 20:40:00+00:00,259.048,12.1,14.0,47.84626,-54.09684
2019-06-25 20:50:00+00:00,252.7281,12.1,14.0,47.84626,-54.09684
2019-06-25 21:00:00+00:00,248.5831,12.16,13.92,47.84626,-54.09684
2019-06-25 21:10:00+00:00,243.7798,12.2,13.84,47.84626,-54.09684
2019-06-25 21:20:00+00:00,237.3898,12.28,13.84,47.84626,-54.09684
2019-06-25 21:30:00+00:00,234.3148,12.3,13.84,47.84626,-54.09684
2019-06-25 21:40:00+00:00,232.4948,12.3,13.92,47.84626,-54.09684
2019-06-25 21:50:00+00:00,229.3548,12.3,13.84,47.84626,-54.09684
2019-06-25 22:00:00+00:00,227.5347,12.3,13.84,47.84626,-54.09684
2019-06-25 22:10:00+00:00,228.7598,12.3,13.68,47.84626,-54.09684
2019-06-25 22:20:00+00:00,228.2347,12.3,13.68,47.84626,-54.09684
2019-06-25 22:30:00+00:00,225.2764,12.3,13.68,47.84626,-54.09684
2019-06-25 22:40:00+00:00,225.4698,12.3,13.68,47.84626,-54.09684
2019-06-25 22:50:00+00:00,229.1931,12.3,13.6,47.84626,-54.09684
2019-06-25 23:00:00+00:00,227.1315,12.34,13.53,47.84626,-54.09684
2019-06-25 23:10:00+00:00,222.5231,12.4,13.37,47.84626,-54.09684
2019-06-25 23:20:00+00:00,223.7198,12.47,13.37,47.84626,-54.09684
2019-06-25 23:30:00+00:00,228.3814,12.5,13.29,47.84626,-54.09684
2019-06-25 23:40:00+00:00,227.1981,12.54,13.29,47.84626,-54.09684
2019-06-25 23:50:00+00:00,224.9281,12.56,13.29,47.84626,-54.09684
